D3121 Weather Reports


time (UTC)temp
F
wind
direction
speed
knots
gust
knots
rain 1hr
in
rain 24hr
in
rain mn
in
humidity
%
barometer
mb
20260507105137 43 0 1.7 1.7 0.00 0.44 0.01 95 1006.8
20260507104117 43 0 1.7 2.6 0.00 0.44 0.01 96 1006.8
20260507103117 43 0.0 0.0 0.00 0.44 0.01 96 1006.8
20260507102137 42 0.0 0.0 0.00 0.44 0.01 96 1006.7
20260507101117 41 0.0 0.0 0.00 0.44 0.01 96 1006.6
20260507100157 41 0.0 0.0 0.00 0.44 0.01 96 1006.8
20260507095117 42 0.0 0.0 0.00 0.44 0.01 96 1006.7
20260507094117 42 0.0 0.0 0.00 0.44 0.01 96 1006.9
20260507093137 42 0.0 0.9 0.00 0.44 0.01 96 1006.8
20260507092116 42 0.0 0.9 0.00 0.44 0.01 96 1006.9
20260507091117 42 0.0 0.0 0.00 0.44 0.01 96 1007.1
20260507090117 42 0.0 0.0 0.00 0.44 0.01 95 1007.0
20260507085116 42 0.0 0.0 0.00 0.44 0.01 95 1006.6
20260507084117 42 0.0 0.0 0.00 0.44 0.01 96 1006.7
20260507083116 42 0.0 0.0 0.00 0.44 0.01 95 1006.7
20260507082117 42 0.0 0.0 0.00 0.44 0.01 95 1006.5
20260507081117 42 0.0 0.0 0.00 0.44 0.01 95 1006.6
20260507080117 42 0.0 0.0 0.00 0.44 0.01 95 1006.4
20260507075117 42 0.0 0.9 0.00 0.44 0.01 95 1006.5
20260507074137 43 0.0 0.0 0.00 0.44 0.01 95 1006.4
20260507073117 43 0.0 0.9 0.00 0.44 0.01 95 1006.4
20260507072117 43 0.0 0.0 0.00 0.44 0.01 95 1006.3
20260507071137 43 270 0.9 1.7 0.00 0.44 0.01 95 1005.9
20260507070116 43 0.0 0.0 0.00 0.44 0.01 95 1005.9
20260507065117 43 0.0 0.0 0.00 0.44 0.01 95 1005.6
20260507064117 43 293 0.9 1.7 0.00 0.44 0.01 95 1005.7
20260507063117 43 0.0 0.0 0.00 0.44 0.01 95 1006.2
20260507062117 44 0.0 0.0 0.00 0.44 0.01 95 1006.1
20260507061117 44 0.0 0.0 0.00 0.44 0.01 95 1006.3
20260507060137 44 0.0 0.0 0.00 0.44 0.01 95 1006.3
20260507055117 44 0.0 0.0 0.00 0.44 0.01 95 1006.0
20260507054117 44 338 0.9 1.7 0.00 0.44 0.01 96 1006.6
20260507053117 44 0.0 0.0 0.00 0.44 0.01 95 1006.8
20260507052117 44 0.0 0.0 0.00 0.44 0.01 95 1006.2
20260507051137 45 0.0 1.7 0.01 0.44 0.01 95 1006.6
20260507050117 45 0.0 0.0 0.01 0.44 0.01 95 1006.4
20260507045116 45 0.0 0.0 0.01 0.44 0.01 95 1006.3
20260507044117 45 293 0.9 0.9 0.01 0.44 0.01 95 1006.2
20260507043117 45 0.0 0.0 0.01 0.44 0.01 95 1006.2
20260507042117 45 0.0 0.9 0.01 0.44 0.01 95 1006.4
20260507041117 45 0.0 0.9 0.00 0.43 0.00 95 1006.3
20260507040117 45 0.0 0.0 0.00 0.43 0.00 95 1006.2
20260507035116 46 0.0 0.0 0.01 0.43 0.43 94 1006.2
20260507034115 46 0.0 0.9 0.01 0.43 0.43 94 1006.3
20260507033116 46 293 0.9 0.9 0.01 0.43 0.43 94 1006.3
20260507032116 46 270 0.9 1.7 0.01 0.43 0.43 94 1006.2
20260507031116 46 225 0.9 1.7 0.02 0.43 0.43 94 1006.2
20260507030115 47 315 0.9 1.7 0.02 0.43 0.43 94 1006.3
20260507025136 47 315 0.9 0.9 0.01 0.42 0.42 95 1006.4
20260507024116 47 0.0 1.7 0.02 0.42 0.42 94 1006.2
20260507023116 48 315 0.9 1.7 0.02 0.42 0.42 94 1006.2
20260507022136 48 338 0.9 2.6 0.03 0.42 0.42 94 1006.4
20260507021115 48 0.0 0.9 0.03 0.41 0.41 94 1006.4
20260507020116 49 270 0.9 1.7 0.04 0.41 0.41 95 1006.2
20260507015115 49 0.0 0.0 0.04 0.41 0.41 95 1006.3
20260507014115 49 293 0.9 1.7 0.03 0.40 0.40 94 1006.0
20260507013115 49 0.0 0.0 0.04 0.40 0.40 94 1005.9
20260507012115 50 270 1.7 2.6 0.04 0.39 0.39 94 1005.8
20260507011118 50 338 0.9 1.7 0.03 0.38 0.38 94 1005.7
20260507010116 51 338 2.6 6.1 0.02 0.37 0.37 94 1005.4
20260507005118 52 338 4.3 5.2 0.02 0.37 0.37 95 1005.1
20260507004115 52 225 0.9 3.5 0.03 0.37 0.37 95 1005.2
20260507003117 52 293 0.9 3.5 0.03 0.36 0.36 95 1004.8
20260507002116 52 270 0.9 2.6 0.09 0.35 0.35 95 1004.5
20260507001117 53 338 2.6 5.2 0.10 0.35 0.35 94 1004.3
20260507000159 53 315 2.6 4.3 0.10 0.35 0.35 94 1004.0
20260506235117 54 338 6.1 10.4 0.10 0.35 0.35 93 1003.9
20260506234117 56 338 4.3 7.8 0.10 0.34 0.34 94 1003.8
20260506233117 58 293 2.6 6.1 0.10 0.33 0.33 96 1003.6
20260506232138 58 0.0 0.9 0.03 0.26 0.26 96 1003.3
20260506231117 58 0.0 0.0 0.02 0.26 0.25 95 1003.2
20260506230118 58 0.0 0.9 0.03 0.26 0.25 95 1003.2
20260506225117 58 0.0 0.0 0.03 0.26 0.25 95 1003.5
20260506224118 58 0.0 0.9 0.02 0.25 0.24 95 1003.4
20260506223116 58 293 0.9 0.9 0.01 0.24 0.23 95 1003.4
20260506222138 58 0.0 0.9 0.01 0.24 0.23 94 1003.2
20260506221156 58 0.0 0.9 0.01 0.24 0.23 94 1003.3
20260506220158 58 0.0 1.7 0.00 0.23 0.22 94 1003.2
20260506215116 59 180 0.9 1.7 0.00 0.23 0.22 94 1003.2
20260506214138 59 248 2.6 3.5 0.01 0.24 0.22 95 1003.2
20260506213117 58 315 0.9 1.7 0.01 0.24 0.22 95 1003.2
20260506212136 58 0.0 1.7 0.01 0.24 0.22 95 1003.3
20260506211117 58 0.0 0.0 0.02 0.24 0.22 95 1003.4
20260506210117 58 315 0.9 2.6 0.02 0.24 0.22 95 1003.5
20260506205117 58 0.0 0.9 0.02 0.24 0.22 96 1003.6
20260506204118 58 0 0.9 2.6 0.01 0.23 0.21 96 1003.5
20260506203118 58 225 0.9 1.7 0.01 0.23 0.21 96 1003.6
20260506202117 57 0.0 0.9 0.01 0.23 0.21 96 1003.5
20260506201118 57 0.0 0.0 0.00 0.22 0.20 96 1003.6
20260506200118 56 0.0 0.0 0.03 0.22 0.20 95 1003.7
20260506195117 56 0.0 0.0 0.05 0.22 0.20 94 1003.7
20260506194117 56 0.0 0.0 0.06 0.22 0.20 94 1003.9
20260506193117 57 0.0 0.9 0.07 0.22 0.20 93 1004.1
20260506192117 58 0.0 0.0 0.07 0.22 0.20 95 1004.2
20260506191117 58 90 0.9 1.7 0.08 0.22 0.20 95 1004.3
20260506190118 57 0.0 0.0 0.05 0.19 0.17 94 1004.4
20260506185117 58 0.0 0.0 0.04 0.17 0.15 94 1004.6
20260506184117 58 0.0 0.0 0.05 0.16 0.14 94 1004.7
20260506183117 58 0.0 0.0 0.06 0.15 0.13 94 1004.8
20260506182116 58 0.0 0.0 0.07 0.15 0.13 94 1004.8
20260506181117 58 0.0 0.0 0.08 0.14 0.12 94 1005.2
20260506180117 59 0.0 0.0 0.09 0.14 0.12 94 1005.5
20260506175117 59 0.0 0.0 0.09 0.13 0.11 94 1005.7
20260506174117 59 23 0.9 2.6 0.08 0.11 0.09 93 1005.8
20260506173117 59 0.0 0.9 0.07 0.09 0.07 93 1005.8
20260506172117 59 0.0 0.9 0.06 0.08 0.06 93 1005.8
20260506171116 59 0.0 0.9 0.04 0.06 0.04 92 1005.8
20260506170118 60 0.0 0.9 0.03 0.05 0.03 92 1005.9
20260506165138 60 0.0 0.9 0.02 0.04 0.02 90 1005.9
20260506164117 60 293 0.9 1.7 0.01 0.03 0.01 90 1006.0
20260506163117 60 0.0 0.9 0.00 0.02 0.00 87 1006.0
20260506162117 60 0.0 0.9 0.00 0.02 0.00 86 1006.0
20260506161117 61 0.0 0.0 0.00 0.02 0.00 85 1006.2
20260506160117 61 0.0 0.9 0.00 0.02 0.00 84 1006.3
20260506155117 61 338 0.9 1.7 0.00 0.02 0.00 84 1006.5
20260506154117 61 90 0.9 1.7 0.00 0.02 0.00 84 1006.8
20260506153117 61 0.0 0.0 0.00 0.02 0.00 83 1007.0
20260506152117 61 45 0.9 1.7 0.00 0.02 0.00 82 1007.2
20260506151118 61 248 0.9 1.7 0.00 0.02 0.00 83 1007.2
20260506150117 61 158 1.7 3.5 0.00 0.02 0.00 82 1007.2
20260506145118 60 0.0 0.9 0.00 0.02 0.00 83 1006.9
20260506144117 60 113 0.9 1.7 0.00 0.02 0.00 83 1006.7
20260506143117 60 45 2.6 3.5 0.00 0.02 0.00 83 1006.7
20260506142117 60 0 0.9 1.7 0.00 0.02 0.00 83 1006.9
20260506141117 60 45 1.7 2.6 0.00 0.02 0.00 83 1006.9
20260506140117 60 90 0.9 1.7 0.00 0.02 0.00 84 1007.1
20260506135117 59 90 1.7 4.3 0.00 0.02 0.00 84 1006.9
20260506134117 59 68 0.9 0.9 0.00 0.02 0.00 84 1006.9
20260506133117 59 0.0 0.0 0.00 0.02 0.00 85 1007.0
20260506132117 59 23 1.7 2.6 0.00 0.02 0.00 85 1007.2
20260506131117 59 180 0.9 1.7 0.00 0.02 0.00 86 1007.4
20260506130117 58 158 1.7 3.5 0.00 0.02 0.00 87 1007.7
20260506125117 58 135 0.9 1.7 0.00 0.02 0.00 87 1007.6
20260506124117 57 0.0 0.0 0.00 0.02 0.00 88 1007.1
20260506123117 57 0.0 0.0 0.00 0.02 0.00 89 1007.2
20260506122117 56 0.0 0.0 0.00 0.02 0.00 89 1006.9
20260506121137 56 0.0 0.0 0.00 0.02 0.00 89 1007.0
20260506120117 56 0.0 0.0 0.00 0.02 0.00 90 1007.4
20260506115117 55 0.0 0.0 0.00 0.02 0.00 90 1007.3
20260506114117 55 0.0 0.0 0.00 0.02 0.00 90 1007.3
20260506113117 54 0.0 0.0 0.00 0.02 0.00 91 1007.4
20260506112117 54 0.0 0.0 0.00 0.02 0.00 92 1007.3
20260506111117 53 0.0 0.0 0.00 0.02 0.00 92 1007.4
20260506110137 53 0.0 0.0 0.00 0.02 0.00 92 1007.3